Weather History for KTKC - March, 2013

Change the Weather History Date:

Friday, March 29, 2013

  Actual Average (KMML) Record (KMML)
Temperature  
Mean Temperature 46 °F -  
Max Temperature 58 °F 45 °F 76 °F (1968)
Min Temperature 35 °F 27 °F -8 °F (1969)
Degree Days  
Heating Degree Days 18    
Moisture  
Dew Point 36 °F    
Average Humidity 69    
Maximum Humidity 86    
Minimum Humidity 47    
Precipitation  
Precipitation 0.00 in - - ()
Sea Level Pressure  
Sea Level Pressure 30.12 in    
Wind  
Wind Speed 11 mph (SSW)    
Max Wind Speed 17 mph    
Max Gust Speed 25 mph    
Visibility 10 miles    
Events      
Averages and records for this station are not official NWS values.
T = Trace of Precipitation, MM = Missing Value Source: NWS Daily Summary

Daily Weather History Graph

Daily Weather History Graph

Search for Another Location

Airport or City:

Trip Planner

Search our weather history database for the weather conditions in past years. The results will help you decide how hot, cold, wet, or windy it might be!

Date:

Astronomy

Mar. 29, 2013 Rise Set
Actual Time 7:08 AM CDT 7:46 PM CDT
Civil Twilight 6:39 AM CDT 8:15 PM CDT
Nautical Twilight 6:04 AM CDT 8:50 PM CDT
Astronomical Twilight 5:29 AM CDT 9:26 PM CDT
Moon 10:55 PM CDT (3/29) 8:11 AM CDT (3/29)
Length of Visible Light 13h 36m
Length of Day
12h 37m
Waning Gibbous, 93% of the Moon is Illuminated
Mar 29
Waning Gibbous
Apr 2
Last Quarter
Apr 10
New
Apr 18
First Quarter
Apr 25
Full

Hourly Weather History & Observations

Time (CDT) Temp. Windchill Dew Point Humidity Pressure Visibility Wind Dir Wind Speed Gust Speed Precip Events Conditions
12:17 AM 36.9 °F 28.7 °F 32.5 °F 84% 30.21 in 10.0 mi SSW 12.7 mph 18.4 mph N/A   Clear
12:38 AM 37.0 °F 28.9 °F 32.9 °F 85% 30.21 in 10.0 mi SSW 12.7 mph - N/A   Mostly Cloudy
12:58 AM 37.4 °F 29.3 °F 32.9 °F 84% 30.20 in 10.0 mi SSW 12.7 mph 18.4 mph N/A   Overcast
1:18 AM 37.4 °F 28.9 °F 32.9 °F 84% 30.21 in 10.0 mi SSW 13.8 mph - N/A   Overcast
1:38 AM 36.9 °F 28.7 °F 32.9 °F 86% 30.21 in 7.0 mi SSW 12.7 mph - N/A   Overcast
1:58 AM 36.5 °F 28.2 °F 32.5 °F 86% 30.21 in 7.0 mi SSW 12.7 mph - N/A   Overcast
2:18 AM 37.2 °F 29.1 °F 32.9 °F 84% 30.21 in 10.0 mi SSW 12.7 mph - N/A   Overcast
2:38 AM 37.4 °F 29.8 °F 32.9 °F 84% 30.21 in 10.0 mi SSW 11.5 mph - N/A   Overcast
2:58 AM 37.2 °F 29.6 °F 32.9 °F 84% 30.20 in 10.0 mi SSW 11.5 mph - N/A   Overcast
3:18 AM 37.4 °F 28.9 °F 32.5 °F 83% 30.20 in 10.0 mi SSW 13.8 mph - N/A   Overcast
3:38 AM 37.0 °F 29.3 °F 32.4 °F 83% 30.20 in 10.0 mi SSW 11.5 mph - N/A   Overcast
3:58 AM 37.4 °F 28.9 °F 32.4 °F 82% 30.19 in 10.0 mi SSW 13.8 mph - N/A   Overcast
4:18 AM 37.0 °F 30.4 °F 32.4 °F 83% 30.20 in 10.0 mi SSW 9.2 mph - N/A   Overcast
4:38 AM 37.0 °F - 32.0 °F 82% 30.19 in 10.0 mi Calm Calm - N/A   Overcast
4:58 AM 36.9 °F - 32.0 °F 83% 30.18 in 10.0 mi Calm Calm - N/A   Overcast
5:18 AM 35.8 °F - 32.0 °F 86% 30.18 in 10.0 mi Calm Calm - N/A   Mostly Cloudy
5:37 AM 36.5 °F - 32.0 °F 84% 30.18 in 10.0 mi Calm Calm - N/A   Mostly Cloudy
5:57 AM 36.0 °F 29.6 °F 31.6 °F 84% 30.18 in 10.0 mi SSW 8.1 mph - N/A   Mostly Cloudy
6:18 AM 37.2 °F 30.0 °F 32.0 °F 81% 30.18 in 10.0 mi SSW 10.4 mph - N/A   Mostly Cloudy
6:38 AM 37.6 °F 30.0 °F 32.0 °F 80% 30.18 in 10.0 mi SSW 11.5 mph - N/A   Overcast
6:57 AM 36.5 °F 29.2 °F 31.8 °F 83% 30.18 in 10.0 mi SSW 10.4 mph - N/A   Overcast
7:17 AM 35.8 °F 27.8 °F 31.8 °F 86% 30.18 in 10.0 mi SSW 11.5 mph - N/A   Mostly Cloudy
7:38 AM 36.0 °F - 32.0 °F 86% 30.19 in 10.0 mi Calm Calm - N/A   Overcast
7:58 AM 36.9 °F 29.6 °F 32.0 °F 83% 30.19 in 10.0 mi SSW 10.4 mph - N/A   Overcast
8:17 AM 37.4 °F 29.8 °F 32.0 °F 81% 30.18 in 10.0 mi SSW 11.5 mph - N/A   Mostly Cloudy
8:37 AM 39.4 °F 32.3 °F 32.0 °F 75% 30.19 in 10.0 mi SSW 11.5 mph - N/A   Mostly Cloudy
8:58 AM 39.7 °F 32.3 °F 32.9 °F 77% 30.19 in 10.0 mi SSW 12.7 mph - N/A   Overcast
9:18 AM 41.5 °F 35.0 °F 33.6 °F 73% 30.19 in 10.0 mi SSW 11.5 mph - N/A   Overcast
9:38 AM 43.0 °F 37.2 °F 34.7 °F 73% 30.18 in 10.0 mi SSW 10.4 mph - N/A   Overcast
9:58 AM 44.8 °F 38.7 °F 35.2 °F 69% 30.19 in 10.0 mi SSW 12.7 mph - N/A   Scattered Clouds
10:18 AM 46.4 °F 41.5 °F 35.8 °F 67% 30.18 in 10.0 mi SSW 10.4 mph - N/A   Scattered Clouds
10:38 AM 48.2 °F - 36.7 °F 64% 30.18 in 10.0 mi SSW 11.5 mph - N/A   Scattered Clouds
10:58 AM 49.3 °F - 37.2 °F 63% 30.17 in 10.0 mi SSW 11.5 mph - N/A   Clear
11:17 AM 50.0 °F - 36.3 °F 59% 30.17 in 10.0 mi SSW 11.5 mph 16.1 mph N/A   Scattered Clouds
11:58 AM 53.6 °F - 39.0 °F 58% 30.17 in 10.0 mi Calm Calm - N/A   Clear
12:17 PM 54.3 °F - 38.5 °F 55% 30.16 in 10.0 mi South 11.5 mph - N/A   Clear
12:38 PM 55.9 °F - 39.6 °F 54% 30.16 in 10.0 mi SSW 11.5 mph - N/A   Clear
12:58 PM 56.7 °F - 37.8 °F 49% 30.15 in 10.0 mi SSW 13.8 mph 19.6 mph N/A   Clear
1:17 PM 57.0 °F - 37.4 °F 48% 30.14 in 10.0 mi SSW 13.8 mph 20.7 mph N/A   Clear
1:37 PM 57.4 °F - 37.4 °F 47% 30.13 in 10.0 mi South 12.7 mph 21.9 mph N/A   Clear
1:58 PM 58.1 °F - 38.5 °F 48% 30.13 in 10.0 mi SSW 12.7 mph 19.6 mph N/A   Clear
2:18 PM 58.1 °F - 39.0 °F 49% 30.12 in 10.0 mi SSW 13.8 mph 18.4 mph N/A   Clear
2:38 PM 58.1 °F - 38.3 °F 48% 30.11 in 10.0 mi SSW 12.7 mph 20.7 mph N/A   Clear
2:58 PM 58.1 °F - 39.9 °F 51% 30.10 in 10.0 mi South 16.1 mph 24.2 mph N/A   Clear
3:18 PM 58.5 °F - 39.7 °F 50% 30.10 in 10.0 mi South 15.0 mph 20.7 mph N/A   Clear
3:38 PM 58.1 °F - 39.4 °F 50% 30.09 in 10.0 mi South 15.0 mph - N/A   Clear
3:58 PM 57.9 °F - 40.1 °F 52% 30.08 in 10.0 mi South 16.1 mph 20.7 mph N/A   Clear
4:18 PM 57.7 °F - 40.5 °F 53% 30.07 in 10.0 mi South 16.1 mph 24.2 mph N/A   Clear
4:38 PM 57.7 °F - 40.5 °F 53% 30.06 in 10.0 mi South 13.8 mph 21.9 mph N/A   Clear
4:58 PM 57.6 °F - 40.8 °F 54% 30.06 in 10.0 mi South 13.8 mph 20.7 mph N/A   Clear
5:17 PM 57.4 °F - 41.0 °F 54% 30.05 in 10.0 mi South 11.5 mph 21.9 mph N/A   Clear
5:38 PM 57.2 °F - 41.0 °F 55% 30.05 in 10.0 mi South 11.5 mph 19.6 mph N/A   Clear
5:58 PM 56.8 °F - 41.4 °F 56% 30.04 in 10.0 mi South 12.7 mph 19.6 mph N/A   Clear
6:18 PM 56.5 °F - 41.0 °F 56% 30.04 in 10.0 mi South 11.5 mph 17.3 mph N/A   Clear
6:38 PM 55.8 °F - 41.2 °F 58% 30.04 in 10.0 mi South 12.7 mph 20.7 mph N/A   Clear
6:57 PM 54.5 °F - 41.2 °F 61% 30.03 in 10.0 mi South 10.4 mph 16.1 mph N/A   Clear
7:17 PM 53.6 °F - 41.0 °F 62% 30.02 in 10.0 mi South 11.5 mph - N/A   Clear
7:38 PM 52.7 °F - 40.3 °F 63% 30.02 in 10.0 mi South 12.7 mph 19.6 mph N/A   Clear
7:57 PM 51.6 °F - 39.7 °F 64% 30.01 in 10.0 mi South 11.5 mph - N/A   Clear
8:17 PM 50.0 °F - 39.7 °F 68% 30.01 in 10.0 mi South 12.7 mph - N/A   Clear
8:38 PM 49.1 °F - 39.2 °F 69% 30.01 in 10.0 mi South 13.8 mph 19.6 mph N/A   Clear
8:57 PM 47.5 °F - 39.2 °F 73% 30.00 in 10.0 mi South 12.7 mph 17.3 mph N/A   Clear
9:18 PM 46.9 °F - 39.2 °F 74% 30.00 in 10.0 mi South 12.7 mph 18.4 mph N/A   Clear
9:37 PM 46.6 °F - 39.2 °F 75% 30.00 in 10.0 mi South 13.8 mph 18.4 mph N/A   Clear
9:58 PM 46.6 °F - 38.8 °F 74% 30.00 in 10.0 mi South 12.7 mph - N/A   Mostly Cloudy
10:18 PM 47.1 °F - 38.5 °F 72% 29.99 in 10.0 mi South 12.7 mph 20.7 mph N/A   Overcast
10:38 PM 46.4 °F 40.4 °F 38.1 °F 73% 29.99 in 10.0 mi South 13.8 mph 19.6 mph N/A   Overcast
10:58 PM 45.9 °F 39.4 °F 37.6 °F 73% 29.99 in 10.0 mi South 15.0 mph 20.7 mph N/A   Overcast
11:18 PM 46.4 °F 39.8 °F 36.7 °F 69% 29.98 in 10.0 mi South 16.1 mph 21.9 mph N/A   Overcast
11:38 PM 46.8 °F - 36.3 °F 67% 29.97 in 10.0 mi South 13.8 mph 21.9 mph N/A   Mostly Cloudy
11:58 PM 46.2 °F 39.3 °F 35.6 °F 66% 29.96 in 10.0 mi South 17.3 mph 25.3 mph N/A   Scattered Clouds